Home   Weather   Iráklion   Past weeks

Flag for Greece Past Weather in Iráklion, Crete, Greece — Yesterday and Last 2 Weeks

Now
66 °F

Passing clouds.


Feels Like: 66 °F
Forecast: 51 / 72 °F
Wind: 7 mph from Northeast

Location: Heraklion Airport

Current Time: Apr 25, 2017 at 1:42:43 pm

Latest Report: Apr 25, 2017 at 12:50 pm


Visibility: N/A

Pressure: 30.18 "Hg

Humidity: 73%

Dew Point: 57 °F

Location of IráklionLocation

Past Weather in Iráklion — Graph

°F

Iráklion Temperature Yesterday

Maximum temperature yesterday: 66 °F (at 11:50 am)
Minimum temperature yesterday: 50 °F (at 12:20 am)
Average temperature yesterday: 58 °F

High & Low Weather Summary for the Past Weeks

 TemperatureHumidityPressure
High81 °F (Apr 20, 11:50 am)100% (Apr 25, 6:20 am)30.18 "Hg (Apr 25, 6:20 am)
Low48 °F (Apr 22, 11:50 pm)51% (Apr 23, 10:50 am)29.77 "Hg (Apr 13, 4:50 pm)
Average61 °F80%29.97 "Hg
* Reported Apr 10 12:20 pm — Apr 25 12:20 pm, Iráklion, Weather by CustomWeather, © 2017

Note: Actual official high and low records may vary slightly from our data, if they occured in-between our weather recording intervals... More about our weather records

Advertising

Iráklion Weather History for the Previous 24 Hours

Scroll right to see more
 ConditionsComfort  
Time TempWeatherWind HumidityBarometerVisibility
12:20 pm
Tue, Apr 25
66 °FPassing clouds.7 mph73%30.18 "HgN/A
11:50 am66 °FPassing clouds.5 mph73%30.18 "HgN/A
11:20 am64 °FPassing clouds.No wind83%30.18 "HgN/A
10:50 am63 °FPassing clouds.No wind83%30.15 "HgN/A
9:50 am61 °FPassing clouds.No wind83%30.12 "HgN/A
9:20 am61 °FPassing clouds.No wind83%30.12 "HgN/A
8:50 am59 °FPassing clouds.6 mph88%30.12 "HgN/A
8:20 am55 °FPassing clouds.6 mph88%30.15 "HgN/A
7:50 am54 °FPassing clouds.6 mph88%30.15 "HgN/A
7:20 am52 °FPassing clouds.6 mph94%30.15 "HgN/A
6:50 am50 °FPassing clouds.8 mph94%30.15 "HgN/A
6:20 am50 °FPassing clouds.7 mph100%30.15 "HgN/A
5:20 am52 °FPassing clouds.7 mph94%30.15 "HgN/A
4:20 am52 °FPassing clouds.7 mph94%30.15 "HgN/A
3:50 am52 °FPassing clouds.7 mph94%30.15 "HgN/A
3:20 am54 °FPassing clouds.6 mph94%30.15 "HgN/A
2:50 am54 °FPassing clouds.6 mph94%30.15 "HgN/A
2:20 am54 °FPassing clouds.7 mph94%30.18 "HgN/A
1:50 am54 °FPassing clouds.5 mph94%30.18 "HgN/A
1:20 am54 °FPassing clouds.5 mph94%30.18 "HgN/A
12:50 am54 °FPassing clouds.5 mph94%30.18 "HgN/A
12:20 am55 °FPassing clouds.6 mph94%30.18 "HgN/A
11:50 pm
Mon, Apr 24
55 °FPassing clouds.6 mph94%30.18 "HgN/A
10:50 pm55 °FPassing clouds.5 mph94%30.18 "HgN/A
10:20 pm59 °FPassing clouds.3 mph94%30.15 "HgN/A
9:50 pm59 °FPassing clouds.5 mph94%30.15 "HgN/A
9:20 pm61 °FPassing clouds.No wind88%30.15 "HgN/A
8:50 pm61 °FPassing clouds.No wind88%30.15 "HgN/A
8:20 pm61 °FPassing clouds.No wind94%30.12 "HgN/A
7:50 pm63 °FPassing clouds.No wind94%30.15 "HgN/A
7:20 pm64 °FPassing clouds.No wind88%30.15 "HgN/A
6:50 pm64 °FPassing clouds.No wind88%30.15 "HgN/A
6:20 pm64 °FPassing clouds.6 mph88%30.15 "HgN/A
5:50 pm64 °FPassing clouds.6 mph88%30.15 "HgN/A
5:20 pm64 °FPassing clouds.10 mph83%30.18 "HgN/A
4:50 pm64 °FPassing clouds.10 mph83%30.18 "HgN/A
4:20 pm64 °FPassing clouds.10 mph83%30.18 "HgN/A
3:50 pm64 °FPassing clouds.10 mph83%30.18 "HgN/A
3:20 pm64 °FPassing clouds.12 mph83%30.18 "HgN/A
2:50 pm64 °FPassing clouds.12 mph83%30.18 "HgN/A
2:20 pm64 °FPassing clouds.9 mph78%30.18 "HgN/A
1:50 pm64 °FPassing clouds.10 mph78%30.18 "HgN/A
1:20 pm64 °FPassing clouds.8 mph78%30.18 "HgN/A
Weather by CustomWeather, © 2017

See weather overviewHow to use our weather pages